Location: Ciochowice
(50.4289°N, 18.5217°E)
Time: 20:46:18
(UTC+02:00)

ISS - Visible Passes

Search period start: 20 October 2019 00:00
Search period end: 29 October 2019 23:00
Orbit: 411 x 421 km, 51.6° (Epoch: 20 October)

Date Brightness Start Highest point End Pass type
(mag) Time Alt. Az. Time Alt. Az. Time Alt. Az.
25 Oct -0.8 06:02:53 10° S 06:04:46 14° SE 06:06:38 10° ESE visible
26 Oct -2.5 06:49:13 10° SW 06:52:24 40° SSE 06:55:35 10° E visible
27 Oct -1.9 05:00:55 10° SSW 05:03:52 28° SSE 05:06:49 10° E visible
28 Oct -1.5 04:14:29 18° SSE 04:15:23 20° SE 04:17:54 10° E visible
28 Oct -3.5 05:48:21 10° WSW 05:51:43 73° SSE 05:55:05 10° ENE visible
29 Oct -0.5 03:28:11 11° ESE 03:28:11 11° ESE 03:28:37 10° ESE visible
29 Oct -3.2 05:01:05 21° SW 05:03:06 54° SSE 05:06:24 10° ENE visible
